FALCON 9 R/B, 59347

Orbit data source: Space-Track

FALCON 9 R/B, 59347 is space debris in HEO originally from a launch on Sat, 30 Mar 2024 UTC launched from the Air Force Eastern Test Range (AFETR). Debris objects in space refer to the collection of defunct objects orbiting the Earth. Examples of debris include non-operational satellites, rocket bodies, and fragments generated from explosions, collisions, or faulty payload assembly.

Loading next visibility...
FALCON 9 R/B details
Identifier
59347, 2024-059B
Orbit
HEO
Last TLE update1 day ago
Origin
Flag of USSpaceX (US)
ManufacturerSpaceX
MissionSpacecraft
Bus & MotorF9ST2, Unknown motor
Mass~4,000 kg wet, ~4,000 kg dry
Launch date (UTC)
2024-03-30 (9 months ago)
Launch vehicleUnknown
Launch site
Air Force Eastern Test Range (AFETR)
Object type
Payload
Rocket body
Debris
Shape & HBRCyl, 15.53 m
Radar Cross Section39.980 m², Large (>1 m²)

Expand to show TLE details & history

TLE from 1 day ago
0 FALCON 9 R/B
1 59347U 24059B   24355.22502450  .00000110  00000-0  10195-2 0  9997
2 59347  25.5809 301.0837 8163196 259.5961  10.9742  1.24120774  3253
Epoch: 2024-12-20T05:24Z
Definitive object data (Epoch: 2024-12-20T05:24:02.116Z)
Latitude
Longitude130.76477°
Altitude7,999.523 km
Speed6.674 km/s
True Right ascension20h 04m 16s
True Declination0° 00' 00"
Sunlit
Object was in daylight at TLE epoch
Visualization TLE readout
Latitude24.2815°
Longitude-119.83419°
Altitude37,706.319 km
Speed2.681 km/s
Apparent Right ascension03h 21m 45s
Apparent Declination17° 17' 54"
Sunlit
Object is in daylight
Visualization observer readout
Local Sidereal Time15:20:52
Azimuth359.746° N
Elevation-32.785°
Doppler factor1
Orbital elements
Apogee altitude60,060.112 km
Perigee altitude340.617 km
Semi-major axis36,578.502 km
Eccentricity0.8163196
Inclination25.5809°
RAAN301.0837°
Arg. of periapsis259.5961°
True anomaly101.71443°
Mean anomaly10.9742°
Eccentric anomaly42.68215°
Mean motion0.31024 °/min
BSTAR0.0010195
Orbital period1160.37 mins
Loading maneuver chart data...
Loading historical data...
Loading historical data...
Loading historical data...
Loading historical data...
Loading historical data...
Loading historical data...
Loading historical data...
Other satellites on launch #59 in the year 2024 (2024-03-30 UTC)

FALCON 9 R/B Visibility forecast

Observer location: undefined°, undefined

Span
Click to sort rows by Start time (UTC) header in descending order
Start Az.
Max El. time (UTC)
Max El. Az.
Max El.
End time (UTC)
End Az.
804 mins2024-12-21 19:54:26.012Z174.528° S2024-12-22 01:28:26.012Z187.285° SSW43.484°2024-12-22 09:18:26.012Z289.771° WNW
|